When you browse on this site, cookies collect data to enhance your experience and personalize the content and advertising you see.
Visit our Privacy Policy to learn more. By continuing to use the site, you agree to this use of cookies and data.
  • In Portugal
  • List of Countries
  • For 7 days
  • Water Temperature
  • Weather Map
  • Weather Widgets
  • user-avatar
    Login

    Hourly Weather Irbid

    Today, 26 August, Monday

    Time Temperature Precipitation Wind Pressure Humidity
    00:00 +21°C° 0 mm 1 mps 708 mmHg 81%
    01:00 +18°C° 0 mm 0 mps 707 mmHg 82%
    02:00 +20°C° 0 mm 1 mps 707 mmHg 84%
    03:00 +18°C° 0 mm 0 mps 707 mmHg 85%
    04:00 +17°C° 0 mm 0 mps 708 mmHg 85%
    05:00 +17°C° 0 mm 0 mps 708 mmHg 86%
    06:00 +22°C° 0 mm 1 mps 708 mmHg 73%
    07:00 +25°C° 0 mm 1 mps 709 mmHg 60%
    08:00 +28°C° 0 mm 1 mps 710 mmHg 47%
    09:00 +30°C° 0 mm 2 mps 710 mmHg 39%
    10:00 +34°C° 0 mm 3 mps 710 mmHg 32%
    11:00 +36°C° 0 mm 3 mps 710 mmHg 24%
    12:00 +37°C° 0 mm 4 mps 710 mmHg 23%
    13:00 +39°C° 0 mm 5 mps 710 mmHg 21%
    14:00 +40°C° 0 mm 6 mps 710 mmHg 20%
    15:00 +37°C° 0 mm 5 mps 709 mmHg 24%
    16:00 +36°C° 0 mm 5 mps 709 mmHg 28%
    17:00 +34°C° 0 mm 5 mps 709 mmHg 32%
    18:00 +30°C° 0 mm 4 mps 708 mmHg 40%
    19:00 +28°C° 0 mm 3 mps 708 mmHg 49%
    20:00 +25°C° 0 mm 2 mps 708 mmHg 57%
    21:00 +24°C° 0 mm 2 mps 708 mmHg 60%
    22:00 +24°C° 0 mm 2 mps 708 mmHg 62%
    23:00 +23°C° 0 mm 1 mps 708 mmHg 64%

    Tomorrow, 27 August, Tuesday

    Time Temperature Precipitation Wind Pressure Humidity
    00:00 +22°C° 0 mm 1 mps 708 mmHg 68%
    01:00 +22°C° 0 mm 1 mps 708 mmHg 71%
    02:00 +21°C° 0 mm 1 mps 708 mmHg 75%
    03:00 +21°C° 0 mm 1 mps 708 mmHg 76%
    04:00 +20°C° 0 mm 1 mps 708 mmHg 77%
    05:00 +18°C° 0 mm 0 mps 708 mmHg 78%
    06:00 +22°C° 0 mm 1 mps 708 mmHg 68%
    07:00 +25°C° 0 mm 1 mps 709 mmHg 58%
    08:00 +28°C° 0 mm 2 mps 709 mmHg 48%
    09:00 +30°C° 0 mm 2 mps 710 mmHg 41%
    10:00 +33°C° 0 mm 3 mps 710 mmHg 33%
    11:00 +35°C° 0 mm 3 mps 710 mmHg 26%
    12:00 +36°C° 0 mm 4 mps 710 mmHg 25%
    13:00 +37°C° 0 mm 5 mps 709 mmHg 24%
    14:00 +39°C° 0 mm 6 mps 709 mmHg 24%
    15:00 +38°C° 0 mm 6 mps 708 mmHg 29%
    16:00 +35°C° 0 mm 6 mps 708 mmHg 35%
    17:00 +33°C° 0 mm 5 mps 708 mmHg 40%
    18:00 +29°C° 0 mm 4 mps 708 mmHg 50%
    19:00 +27°C° 0 mm 4 mps 708 mmHg 60%
    20:00 +25°C° 0 mm 3 mps 707 mmHg 70%
    21:00 +24°C° 0 mm 3 mps 708 mmHg 75%
    22:00 +23°C° 0 mm 2 mps 708 mmHg 80%
    23:00 +23°C° 0 mm 2 mps 708 mmHg 84%

    Day after tomorrow, 28 August, Wednesday

    Time Temperature Precipitation Wind Pressure Humidity
    00:00 +21°C° 0 mm 2 mps 708 mmHg 85%
    01:00 +22°C° 0 mm 1 mps 708 mmHg 86%
    02:00 +22°C° 0 mm 1 mps 707 mmHg 87%
    03:00 +21°C° 0 mm 1 mps 707 mmHg 89%
    04:00 +21°C° 0 mm 1 mps 707 mmHg 90%
    05:00 +21°C° 0 mm 1 mps 707 mmHg 91%
    06:00 +23°C° 0 mm 2 mps 708 mmHg 82%
    07:00 +25°C° 0 mm 2 mps 708 mmHg 73%
    08:00 +27°C° 0 mm 3 mps 709 mmHg 63%
    09:00 +29°C° 0 mm 3 mps 709 mmHg 55%
    10:00 +31°C° 0 mm 3 mps 709 mmHg 46%
    11:00 +34°C° 0 mm 4 mps 709 mmHg 37%
    12:00 +35°C° 0 mm 5 mps 708 mmHg 35%
    13:00 +36°C° 0 mm 6 mps 708 mmHg 33%
    14:00 +38°C° 0 mm 8 mps 708 mmHg 30%
    15:00 +35°C° 0 mm 7 mps 708 mmHg 35%
    16:00 +34°C° 0 mm 6 mps 707 mmHg 40%
    17:00 +32°C° 0 mm 6 mps 707 mmHg 45%
    18:00 +29°C° 0 mm 5 mps 707 mmHg 54%
    19:00 +26°C° 0 mm 4 mps 707 mmHg 63%
    20:00 +24°C° 0 mm 3 mps 707 mmHg 73%
    21:00 +24°C° 0 mm 2 mps 707 mmHg 75%
    22:00 +23°C° 0 mm 2 mps 707 mmHg 78%
    23:00 +21°C° 0 mm 2 mps 707 mmHg 81%

    29 August, Thursday

    Time Temperature Precipitation Wind Pressure Humidity
    00:00 +21°C° 0 mm 2 mps 707 mmHg 84%
    01:00 +21°C° 0 mm 1 mps 707 mmHg 88%
    02:00 +21°C° 0 mm 1 mps 707 mmHg 91%
    03:00 +21°C° 0 mm 1 mps 707 mmHg 89%
    04:00 +21°C° 0 mm 1 mps 707 mmHg 87%
    05:00 +20°C° 0 mm 1 mps 707 mmHg 85%
    06:00 +21°C° 0 mm 2 mps 707 mmHg 77%
    07:00 +24°C° 0 mm 2 mps 708 mmHg 69%
    08:00 +27°C° 0 mm 3 mps 708 mmHg 61%
    09:00 +29°C° 0 mm 3 mps 708 mmHg 51%
    10:00 +32°C° 0 mm 4 mps 708 mmHg 42%
    11:00 +34°C° 0 mm 4 mps 708 mmHg 33%
    12:00 +35°C° 0 mm 5 mps 708 mmHg 31%
    13:00 +36°C° 0 mm 7 mps 708 mmHg 30%
    14:00 +38°C° 0 mm 8 mps 708 mmHg 28%
    15:00 +35°C° 0 mm 8 mps 708 mmHg 35%
    16:00 +33°C° 0 mm 7 mps 707 mmHg 41%
    17:00 +32°C° 0 mm 7 mps 707 mmHg 47%
    18:00 +28°C° 0 mm 6 mps 707 mmHg 59%
    19:00 +26°C° 0 mm 4 mps 707 mmHg 71%
    20:00 +24°C° 0 mm 3 mps 707 mmHg 83%
    21:00 +23°C° 0 mm 2 mps 707 mmHg 85%
    22:00 +23°C° 0 mm 2 mps 707 mmHg 86%
    23:00 +21°C° 0 mm 2 mps 707 mmHg 88%

    30 August, Friday

    Time Temperature Precipitation Wind Pressure Humidity
    00:00 +21°C° 0 mm 2 mps 707 mmHg 90%
    01:00 +20°C° 0 mm 2 mps 707 mmHg 92%
    02:00 +20°C° 0 mm 2 mps 706 mmHg 94%
    03:00 +21°C° 0 mm 1 mps 706 mmHg 94%
    04:00 +20°C° 0 mm 1 mps 706 mmHg 94%
    05:00 +20°C° 0 mm 1 mps 706 mmHg 94%
    06:00 +21°C° 0 mm 2 mps 707 mmHg 85%
    07:00 +24°C° 0 mm 2 mps 707 mmHg 76%
    08:00 +26°C° 0 mm 3 mps 708 mmHg 66%
    09:00 +28°C° 0 mm 3 mps 708 mmHg 57%
    10:00 +32°C° 0 mm 4 mps 708 mmHg 47%
    11:00 +34°C° 0 mm 4 mps 708 mmHg 37%
    12:00 +35°C° 0 mm 5 mps 708 mmHg 35%
    13:00 +36°C° 0 mm 6 mps 708 mmHg 32%
    14:00 +38°C° 0 mm 8 mps 708 mmHg 29%
    15:00 +35°C° 0 mm 7 mps 707 mmHg 34%
    16:00 +33°C° 0 mm 7 mps 707 mmHg 39%
    17:00 +30°C° 0 mm 6 mps 706 mmHg 43%
    18:00 +28°C° 0 mm 5 mps 707 mmHg 54%
    19:00 +26°C° 0 mm 4 mps 707 mmHg 65%
    20:00 +22°C° 0 mm 3 mps 707 mmHg 76%
    21:00 +23°C° 0 mm 2 mps 707 mmHg 79%
    22:00 +21°C° 0 mm 2 mps 707 mmHg 81%
    23:00 +21°C° 0 mm 2 mps 706 mmHg 83%

    31 August, Saturday

    Time Temperature Precipitation Wind Pressure Humidity
    00:00 +21°C° 0 mm 2 mps 706 mmHg 85%
    01:00 +20°C° 0 mm 2 mps 706 mmHg 86%
    02:00 +20°C° 0 mm 2 mps 706 mmHg 88%
    03:00 +21°C° 0 mm 1 mps 706 mmHg 89%
    04:00 +20°C° 0 mm 1 mps 706 mmHg 89%
    05:00 +20°C° 0 mm 1 mps 706 mmHg 90%
    06:00 +22°C° 0 mm 1 mps 706 mmHg 80%
    07:00 +24°C° 0 mm 1 mps 707 mmHg 71%
    08:00 +26°C° 0 mm 1 mps 707 mmHg 61%
    09:00 +28°C° 0 mm 1 mps 708 mmHg 52%
    10:00 +31°C° 0 mm 2 mps 708 mmHg 43%
    11:00 +34°C° 0 mm 2 mps 708 mmHg 33%
    12:00 +35°C° 0 mm 3 mps 707 mmHg 30%
    13:00 +36°C° 0 mm 4 mps 707 mmHg 26%
    14:00 +39°C° 0 mm 5 mps 707 mmHg 23%
    15:00 +36°C° 0 mm 5 mps 707 mmHg 31%
    16:00 +34°C° 0 mm 5 mps 706 mmHg 40%
    17:00 +32°C° 0 mm 5 mps 706 mmHg 49%
    18:00 +29°C° 0 mm 4 mps 706 mmHg 57%
    19:00 +27°C° 0 mm 3 mps 706 mmHg 66%
    20:00 +24°C° 0 mm 2 mps 706 mmHg 75%
    21:00 +24°C° 0 mm 2 mps 706 mmHg 77%
    22:00 +23°C° 0 mm 2 mps 706 mmHg 79%
    23:00 +22°C° 0 mm 1 mps 706 mmHg 81%
    Show more